| time (UTC) | temp F | wind direction | speed knots | gust knots | rain 1hr in | rain 24hr in | rain mn in | humidity % | barometer mb |
| 20260506001543 | 74 | 266 | 4.3 | 11.3 | 0.00 | 0.00 | 0.00 | 59 | 1013.6 |
| 20260506000038 | 75 | 291 | 5.2 | 12.2 | 0.00 | 0.00 | 0.00 | 52 | 1013.5 |
| 20260505234534 | 76 | 313 | 5.2 | 12.2 | 0.00 | 0.00 | 0.00 | 50 | 1013.4 |
| 20260505233043 | 76 | 291 | 7.0 | 15.6 | 0.00 | 0.00 | 0.00 | 48 | 1013.4 |
| 20260505231542 | 77 | 281 | 4.3 | 11.3 | 0.00 | 0.00 | 0.00 | 48 | 1013.2 |
| 20260505230050 | 77 | 301 | 7.8 | 12.2 | 0.00 | 0.00 | 0.00 | 50 | 1013.2 |
| 20260505224547 | 77 | 279 | 4.3 | 12.2 | 0.00 | 0.00 | 0.00 | 49 | 1013.4 |
| 20260505223044 | 78 | 294 | 6.1 | 13.0 | 0.00 | 0.00 | 0.00 | 48 | 1013.4 |
| 20260505221543 | 78 | 275 | 6.1 | 12.2 | 0.00 | 0.00 | 0.00 | 47 | 1013.6 |
| 20260505220044 | 78 | 302 | 8.7 | 14.8 | 0.00 | 0.00 | 0.00 | 45 | 1013.6 |
| 20260505214541 | 78 | 261 | 7.8 | 13.9 | 0.00 | 0.00 | 0.00 | 48 | 1013.7 |
| 20260505213047 | 79 | 282 | 10.4 | 18.2 | 0.00 | 0.00 | 0.00 | 45 | 1013.7 |
| 20260505211541 | 79 | 274 | 7.8 | 16.5 | 0.00 | 0.00 | 0.00 | 44 | 1013.6 |
| 20260505210049 | 78 | 296 | 7.0 | 14.8 | 0.00 | 0.00 | 0.00 | 44 | 1013.7 |
| 20260505204541 | 79 | 298 | 7.0 | 13.9 | 0.00 | 0.00 | 0.00 | 46 | 1013.9 |
| 20260505203044 | 80 | 296 | 7.0 | 15.6 | 0.00 | 0.00 | 0.00 | 42 | 1014.0 |
| 20260505201548 | 80 | 302 | 8.7 | 17.4 | 0.00 | 0.00 | 0.00 | 41 | 1014.0 |
| 20260505200044 | 80 | 242 | 6.1 | 14.8 | 0.00 | 0.00 | 0.00 | 42 | 1014.1 |
| 20260505194548 | 79 | 273 | 6.1 | 14.8 | 0.00 | 0.00 | 0.00 | 43 | 1014.4 |
| 20260505193101 | 80 | 219 | 6.1 | 15.6 | 0.00 | 0.00 | 0.00 | 42 | 1014.7 |
| 20260505191542 | 79 | 300 | 9.6 | 14.8 | 0.00 | 0.00 | 0.00 | 44 | 1015.0 |
| 20260505190042 | 80 | 294 | 7.0 | 13.9 | 0.00 | 0.00 | 0.00 | 42 | 1015.2 |
| 20260505184535 | 79 | 267 | 5.2 | 13.0 | 0.00 | 0.00 | 0.00 | 44 | 1015.3 |
| 20260505183040 | 78 | 238 | 7.8 | 16.5 | 0.00 | 0.00 | 0.00 | 43 | 1015.5 |
| 20260505181541 | 78 | 275 | 5.2 | 18.2 | 0.00 | 0.00 | 0.00 | 43 | 1015.7 |
| 20260505180044 | 77 | 234 | 9.6 | 15.6 | 0.00 | 0.00 | 0.00 | 45 | 1015.8 |
| 20260505174538 | 78 | 284 | 7.0 | 15.6 | 0.00 | 0.00 | 0.00 | 43 | 1015.8 |
| 20260505173041 | 78 | 337 | 2.6 | 15.6 | 0.00 | 0.00 | 0.00 | 45 | 1015.9 |
| 20260505171548 | 78 | 258 | 4.3 | 16.5 | 0.00 | 0.00 | 0.00 | 47 | 1015.9 |
| 20260505170042 | 77 | 242 | 8.7 | 14.8 | 0.00 | 0.00 | 0.00 | 48 | 1016.0 |
| 20260505164543 | 77 | 311 | 1.7 | 11.3 | 0.00 | 0.00 | 0.00 | 49 | 1016.2 |
| 20260505163045 | 75 | 235 | 7.0 | 12.2 | 0.00 | 0.00 | 0.00 | 51 | 1016.3 |
| 20260505161536 | 75 | 319 | 5.2 | 12.2 | 0.00 | 0.00 | 0.00 | 52 | 1016.3 |
| 20260505153047 | 73 | 279 | 5.2 | 9.6 | 0.00 | 0.00 | 0.00 | 57 | 1016.7 |
| 20260505151540 | 73 | 11 | 3.5 | 12.2 | 0.00 | 0.00 | 0.00 | 56 | 1016.8 |
| 20260505124540 | 64 | 327 | 2.6 | 13.0 | 0.00 | 0.00 | 0.00 | 65 | 1017.1 |
| 20260505123048 | 62 | 269 | 3.5 | 11.3 | 0.00 | 0.00 | 0.00 | 69 | 1017.0 |
| 20260505121533 | 61 | 317 | 4.3 | 8.7 | 0.00 | 0.00 | 0.00 | 70 | 1017.0 |
| 20260505120052 | 60 | 19 | 2.6 | 7.0 | 0.00 | 0.00 | 0.00 | 71 | 1016.8 |
| 20260505114543 | 59 | 297 | 1.7 | 4.3 | 0.00 | 0.00 | 0.00 | 71 | 1016.7 |
| 20260505113040 | 58 | 290 | 1.7 | 6.1 | 0.00 | 0.00 | 0.00 | 72 | 1016.6 |
| 20260505111536 | 59 | 288 | 1.7 | 5.2 | 0.00 | 0.00 | 0.00 | 74 | 1016.5 |
| 20260505101540 | 56 | 307 | 1.7 | 4.3 | 0.00 | 0.00 | 0.00 | 74 | 1015.7 |
| 20260505100038 | 56 | 302 | 1.7 | 4.3 | 0.00 | 0.00 | 0.00 | 74 | 1015.8 |
| 20260505094534 | 56 | 283 | 2.6 | 6.1 | 0.00 | 0.00 | 0.00 | 73 | 1015.5 |
| 20260505093036 | 57 | 311 | 2.6 | 6.1 | 0.00 | 0.00 | 0.00 | 73 | 1015.5 |
| 20260505091551 | 57 | 292 | 2.6 | 5.2 | 0.00 | 0.00 | 0.00 | 73 | 1015.3 |
| 20260505090041 | 57 | 275 | 1.7 | 5.2 | 0.00 | 0.00 | 0.00 | 72 | 1015.3 |
| 20260505084555 | 57 | 304 | 2.6 | 5.2 | 0.00 | 0.00 | 0.00 | 72 | 1015.2 |
| 20260505083055 | 58 | 299 | 2.6 | 6.1 | 0.00 | 0.00 | 0.00 | 71 | 1015.1 |
| 20260505081551 | 58 | 317 | 2.6 | 6.1 | 0.00 | 0.00 | 0.00 | 71 | 1015.1 |
| 20260505080055 | 58 | 0 | 1.7 | 4.3 | 0.00 | 0.00 | 0.00 | 71 | 1015.0 |
| 20260505074541 | 59 | 296 | 1.7 | 5.2 | 0.00 | 0.00 | 0.00 | 71 | 1014.9 |
| 20260505073050 | 59 | 316 | 1.7 | 6.1 | 0.00 | 0.00 | 0.00 | 70 | 1014.8 |
| 20260505071545 | 59 | 315 | 1.7 | 6.1 | 0.00 | 0.00 | 0.00 | 70 | 1014.7 |
| 20260505070129 | 60 | 288 | 0.9 | 6.1 | 0.00 | 0.00 | 0.00 | 69 | 1014.7 |
| 20260505064536 | 60 | 303 | 1.7 | 6.1 | 0.00 | 0.00 | 0.00 | 69 | 1014.7 |
| 20260505063049 | 61 | 310 | 2.6 | 7.0 | 0.00 | 0.00 | 0.00 | 68 | 1014.6 |
| 20260505061539 | 61 | 284 | 4.3 | 8.7 | 0.00 | 0.00 | 0.00 | 68 | 1014.7 |
| 20260505060055 | 61 | 203 | 3.5 | 7.0 | 0.00 | 0.00 | 0.00 | 68 | 1014.8 |
| 20260505054537 | 61 | 281 | 2.6 | 6.1 | 0.00 | 0.00 | 0.00 | 67 | 1014.7 |
| 20260505053044 | 62 | 318 | 3.5 | 7.8 | 0.00 | 0.00 | 0.00 | 67 | 1015.0 |
| 20260505051543 | 62 | 275 | 2.6 | 7.8 | 0.00 | 0.00 | 0.00 | 67 | 1015.1 |
| 20260505041545 | 64 | 281 | 6.1 | 13.0 | 0.00 | 0.00 | 0.00 | 64 | 1015.0 |
| 20260505040048 | 64 | 295 | 6.1 | 13.0 | 0.00 | 0.00 | 0.00 | 64 | 1015.1 |
| 20260505034539 | 65 | 273 | 5.2 | 11.3 | 0.00 | 0.00 | 0.00 | 63 | 1015.1 |
| 20260505033037 | 65 | 298 | 6.1 | 10.4 | 0.00 | 0.00 | 0.00 | 62 | 1015.0 |
| 20260505031536 | 66 | 302 | 5.2 | 13.0 | 0.00 | 0.00 | 0.00 | 62 | 1015.1 |
| 20260505030044 | 66 | 290 | 7.8 | 14.8 | 0.00 | 0.00 | 0.00 | 61 | 1015.1 |
| 20260505024548 | 67 | 295 | 6.1 | 11.3 | 0.00 | 0.00 | 0.00 | 61 | 1015.0 |
| 20260505023041 | 67 | 272 | 5.2 | 14.8 | 0.00 | 0.00 | 0.00 | 60 | 1015.0 |
| 20260505021537 | 68 | 302 | 7.0 | 13.0 | 0.00 | 0.00 | 0.00 | 59 | 1014.8 |
| 20260505020040 | 68 | 282 | 9.6 | 15.6 | 0.00 | 0.00 | 0.00 | 56 | 1014.7 |
| 20260505014602 | 69 | 273 | 4.3 | 9.6 | 0.00 | 0.00 | 0.00 | 47 | 1014.5 |
| 20260505013048 | 70 | 273 | 4.3 | 8.7 | 0.00 | 0.00 | 0.00 | 45 | 1014.3 |
| 20260505011543 | 70 | 304 | 2.6 | 8.7 | 0.00 | 0.00 | 0.00 | 45 | 1014.1 |
| 20260505010052 | 71 | 263 | 4.3 | 8.7 | 0.00 | 0.00 | 0.00 | 44 | 1013.9 |
| 20260505004546 | 71 | 292 | 2.6 | 7.8 | 0.00 | 0.00 | 0.00 | 43 | 1013.6 |
| 20260505003054 | 72 | 285 | 2.6 | 7.8 | 0.00 | 0.00 | 0.00 | 42 | 1013.4 |